TimeCDT,TemperatureF,Dew PointF,Humidity,Sea Level PressureIn,VisibilityMPH,Wind Direction,Wind SpeedMPH,Gust SpeedMPH,PrecipitationIn,Events,Conditions,WindDirDegrees,DateUTC
12:53 AM,60.1,60.1,100,29.81,10.0,South,5.8,-,N/A,,Clear,170,2013-05-21 05:53:00
1:53 AM,60.1,60.1,100,29.78,10.0,Calm,Calm,-,N/A,,Clear,0,2013-05-21 06:53:00
2:53 AM,60.1,60.1,100,29.76,10.0,SSE,3.5,-,N/A,,Clear,160,2013-05-21 07:53:00
3:33 AM,62.6,60.8,94,29.83,8.0,SSW,11.5,-,0.02,Rain-Thunderstorm,Light Thunderstorms and Rain,210,2013-05-21 08:33:00
3:53 AM,64.0,61.0,90,29.82,8.0,SSW,19.6,28.8,0.06,Rain-Thunderstorm,Rain,210,2013-05-21 08:53:00
4:04 AM,62.6,62.6,100,29.87,6.0,SSW,13.8,27.6,0.04,Rain-Thunderstorm,Rain,210,2013-05-21 09:04:00
4:37 AM,62.6,62.6,100,29.89,7.0,South,11.5,18.4,0.10,Rain,Rain,190,2013-05-21 09:37:00
4:49 AM,62.6,60.8,94,29.80,9.0,ESE,11.5,-,0.13,Rain-Thunderstorm,Light Thunderstorms and Rain,120,2013-05-21 09:49:00
4:53 AM,63.0,61.0,93,29.73,10.0,East,10.4,-,0.13,Rain-Thunderstorm,Light Thunderstorms and Rain,100,2013-05-21 09:53:00
5:04 AM,62.6,60.8,94,29.77,10.0,NW,3.5,-,0.00,,Scattered Clouds,320,2013-05-21 10:04:00
5:53 AM,61.0,61.0,100,29.76,10.0,Calm,Calm,-,0.00,,Clear,0,2013-05-21 10:53:00
6:53 AM,61.0,61.0,100,29.85,9.0,South,9.2,-,0.01,Rain-Thunderstorm,Light Thunderstorms and Rain,190,2013-05-21 11:53:00
7:35 AM,60.8,60.8,100,29.91,2.5,ESE,3.5,-,0.12,Rain-Thunderstorm,Thunderstorms and Rain,110,2013-05-21 12:35:00
7:46 AM,60.8,60.8,100,29.90,5.0,Calm,Calm,-,0.15,Rain-Thunderstorm,Light Rain,0,2013-05-21 12:46:00
7:53 AM,61.0,61.0,100,29.86,5.0,SE,5.8,-,0.18,Rain-Thunderstorm,Rain,130,2013-05-21 12:53:00
8:16 AM,60.8,60.8,100,29.87,10.0,East,3.5,-,0.04,Rain,Light Rain,80,2013-05-21 13:16:00
8:53 AM,62.1,62.1,100,29.84,5.0,South,3.5,-,0.08,Rain,Rain,190,2013-05-21 13:53:00
9:26 AM,60.8,60.8,100,29.87,5.0,South,5.8,-,0.03,Rain-Thunderstorm,Rain,180,2013-05-21 14:26:00
9:53 AM,61.0,61.0,100,29.89,4.0,WNW,16.1,21.9,0.08,Rain-Thunderstorm,Thunderstorms and Rain,300,2013-05-21 14:53:00
10:40 AM,60.8,60.8,100,29.94,5.0,SSW,11.5,-,0.12,Rain-Thunderstorm,Thunderstorms and Rain,210,2013-05-21 15:40:00
10:53 AM,61.0,61.0,100,29.89,4.0,SSE,9.2,-,0.18,Rain-Thunderstorm,Thunderstorms and Rain,160,2013-05-21 15:53:00
11:18 AM,60.8,60.8,100,29.89,7.0,South,9.2,-,0.07,Rain,Light Rain,180,2013-05-21 16:18:00
11:36 AM,60.8,60.8,100,29.90,7.0,SSW,5.8,-,0.08,Rain-Thunderstorm,Light Rain,200,2013-05-21 16:36:00
11:46 AM,60.8,60.8,100,29.91,7.0,SSW,8.1,-,0.10,Rain-Thunderstorm,Light Thunderstorms and Rain,200,2013-05-21 16:46:00
11:53 AM,61.0,61.0,100,29.90,6.0,South,8.1,-,0.12,Rain-Thunderstorm,Thunderstorms and Rain,190,2013-05-21 16:53:00
12:22 PM,60.8,60.8,100,29.93,2.5,SSW,3.5,-,0.10,Rain,Rain,210,2013-05-21 17:22:00
12:32 PM,60.8,60.8,100,29.94,3.0,SSW,6.9,-,0.14,Rain-Thunderstorm,Thunderstorms and Rain,210,2013-05-21 17:32:00
12:53 PM,61.0,61.0,100,29.93,2.5,South,5.8,-,0.23,Rain-Thunderstorm,Rain,170,2013-05-21 17:53:00
12:56 PM,60.8,60.8,100,29.95,3.0,South,5.8,-,0.01,Rain,Rain,180,2013-05-21 17:56:00
1:05 PM,60.8,60.8,100,29.95,2.5,Variable,5.8,-,0.03,Rain,Rain,0,2013-05-21 18:05:00
1:32 PM,60.8,60.8,100,29.91,5.0,SE,4.6,-,0.10,Rain,Rain,130,2013-05-21 18:32:00
1:53 PM,61.0,60.1,97,29.83,7.0,SE,8.1,-,0.15,Rain,Light Rain,130,2013-05-21 18:53:00
2:53 PM,63.0,61.0,93,29.72,10.0,Variable,5.8,-,0.05,,Partly Cloudy,0,2013-05-21 19:53:00
3:37 PM,62.6,62.6,100,29.89,10.0,West,17.3,34.5,0.03,Rain,Light Rain,280,2013-05-21 20:37:00
3:50 PM,62.6,62.6,100,29.91,9.0,West,13.8,-,0.04,Rain-Thunderstorm,Light Thunderstorms and Rain,270,2013-05-21 20:50:00
3:53 PM,62.1,62.1,100,29.88,7.0,West,10.4,19.6,0.04,Rain-Thunderstorm,Thunderstorms and Rain,270,2013-05-21 20:53:00
4:07 PM,62.6,62.6,100,29.91,2.0,West,11.5,23.0,0.07,Rain-Thunderstorm,Heavy Rain,270,2013-05-21 21:07:00
4:17 PM,62.6,62.6,100,29.91,2.0,West,15.0,21.9,0.12,Rain-Thunderstorm,Heavy Rain,270,2013-05-21 21:17:00
4:24 PM,62.6,62.6,100,29.92,3.0,West,17.3,26.5,0.15,Rain-Thunderstorm,Rain,270,2013-05-21 21:24:00
4:33 PM,60.8,60.8,100,29.92,4.0,West,15.0,23.0,0.17,Rain-Thunderstorm,Rain,270,2013-05-21 21:33:00
4:50 PM,60.8,60.8,100,29.93,2.5,West,11.5,-,0.26,Rain,Heavy Rain,270,2013-05-21 21:50:00
4:53 PM,61.0,61.0,100,29.92,2.5,West,13.8,-,0.27,Rain-Thunderstorm,Heavy Rain,260,2013-05-21 21:53:00
5:00 PM,60.8,60.8,100,29.94,3.0,WSW,13.8,19.6,0.05,Rain-Thunderstorm,Heavy Rain,250,2013-05-21 22:00:00
5:09 PM,60.8,60.8,100,29.92,2.0,West,10.4,20.7,0.11,Rain-Thunderstorm,Heavy Rain,270,2013-05-21 22:09:00
5:22 PM,60.8,60.8,100,29.93,3.0,WSW,11.5,18.4,0.17,Rain,Rain,240,2013-05-21 22:22:00
5:53 PM,60.1,60.1,100,29.84,5.0,ENE,5.8,-,0.26,Rain,Rain,70,2013-05-21 22:53:00
6:15 PM,60.8,60.8,100,29.79,10.0,ESE,5.8,-,0.03,Rain-Thunderstorm,Light Rain,110,2013-05-21 23:15:00
6:30 PM,60.8,59.0,94,29.78,9.0,South,4.6,-,0.04,Rain,Light Rain,170,2013-05-21 23:30:00
6:46 PM,62.6,57.2,82,29.70,10.0,ESE,15.0,21.9,0.05,Rain-Thunderstorm,Light Rain,120,2013-05-21 23:46:00
6:53 PM,63.0,57.0,81,29.68,10.0,Variable,4.6,21.9,0.05,Rain-Thunderstorm,Light Rain,0,2013-05-21 23:53:00
7:01 PM,62.6,57.2,82,29.65,10.0,ESE,18.4,27.6,0.00,,Mostly Cloudy,120,2013-05-22 00:01:00
7:53 PM,61.0,57.9,90,29.70,10.0,WSW,20.7,41.4,0.00,,Clear,250,2013-05-22 00:53:00
8:12 PM,62.6,57.2,82,29.77,10.0,West,12.7,24.2,N/A,,Clear,260,2013-05-22 01:12:00
8:53 PM,60.1,57.9,93,29.78,10.0,West,11.5,-,N/A,,Partly Cloudy,270,2013-05-22 01:53:00
9:53 PM,59.0,57.9,96,29.81,10.0,WNW,3.5,-,N/A,,Overcast,290,2013-05-22 02:53:00
10:53 PM,60.1,57.9,93,29.83,10.0,West,6.9,-,N/A,,Overcast,270,2013-05-22 03:53:00
11:41 PM,59.0,57.2,94,29.85,10.0,SSW,4.6,-,0.00,Rain,Light Rain,210,2013-05-22 04:41:00
11:53 PM,57.9,57.9,100,29.83,10.0,South,5.8,-,0.00,,Overcast,190,2013-05-22 04:53:00